Location: St. Louis
(38.6270°N, 90.1994°W)
Time: 14:31:22
(UTC-06:00)

Vanguard 1 - Pass Details

Date: 01 December 2021
Orbit: 652 x 3830 km, 34.2° (Epoch: 19 January)

Event Time Altitude Azimuth Distance (km) Brightness Sun altitude
Rises 07:23:56 0° 285° (WNW) 7,170 13.8 3.2°
Reaches altitude 10° 07:30:18 10° 276° (W) 5,630 13.4 4.3°
Maximum altitude 07:41:54 27° 227° (SW) 3,276 12.7 6.2°
Drops below altitude 10° 07:49:24 10° 174° (S) 3,522 13.6 7.4°
Sets 07:52:21 0° 161° (SSE) 4,137 14.3 7.8°
